Location: *
(37.5724°S, 58.0067°E)
Time: 11:28:02
(UTC+00:00)

Cosmos 2237 Rocket - Pass Details

Date: 26 September 2020
Orbit: 836 x 848 km, 71.0° (Epoch: 29 October)

Event Time Altitude Azimuth Distance (km) Brightness Sun altitude
Rises 14:23:38 0° 314° (NW) 3,395 6.0 -3.9°
Reaches altitude 10° 14:26:17 10° 304° (NW) 2,470 5.5 -4.4°
Maximum altitude 14:31:24 34° 240° (WSW) 1,382 4.1 -5.4°
Drops below altitude 10° 14:36:35 10° 176° (S) 2,502 4.7 -6.4°
Sets 14:39:18 0° 166° (SSE) 3,445 5.3 -7.0°
